Погода в Ходжаабаде

Узбекистан     40°39′55″N   72°33′59″E
темп.,
°C
ветер,
м/с
пор.,
м/с
влажн.,
%
обл.,
%
осадки,
мм/ч
давл.,
гПа
погр.,
м
15 мая, сб
сб1523:00+19вюв22390 0.0 101019
02:00+15в46520 0.0 1011101
05:00+14в46550 0.0 101196
08:00+21в13370 0.0 1012573
11:00+26зюз35260 0.0 10101682
14:00+28з33210 0.0 10082195
17:00+29сз22150 0.0 10082362
20:00+22в33275 0.0 100921
16 мая, вс
вс1623:00+18в453899 0.0 101070
02:00+17в33375 0.0 101040
05:00+15в34410 0.0 101158
08:00+22вюв34310 0.0 1012371
11:00+27з34190 0.0 10111724
14:00+30з35130 0.0 10092644
17:00+30зсз23117 0.0 10092954
20:00+22в3329100 0.0 101123
17 мая, пн
пн1723:00+19в333897 0.0 101147
02:00+17в4537100 0.0 101166
05:00+16в33370 0.0 101239
08:00+23в33270 0.0 1013351
11:00+30с11180 0.0 10121435
14:00+32ссз33130 0.0 10103319
17:00+31сз231144 0.0 10093216
20:00+23ююв12314 0.0 101122
18 мая, вт
вт1823:00+20в4537100 0.0 101279
02:00+18в464077 0.0 101186
05:00+17в34373 0.0 101158
08:00+24в23262 0.0 1011386
11:00+31сз11186 0.0 10091259
14:00+33сз33125 0.0 10073130
17:00+33зсз23100 0.0 10053218
20:00+25св222118 0.0 100712
19 мая, ср
ср1923:00+21юв11306 0.0 100818
02:00+20вюв223619 0.0 100818
05:00+18в3338100 0.0 100840
08:00+25в212787 0.0 1008323
11:00+30зсз33193 0.0 10071601
14:00+33з36127 0.0 10053332
17:00+33з461139 0.0 10044190
20:00+25ююв0124100 0.0 100721